| time (UTC) | temp F | wind direction | speed knots | gust knots | rain 1hr in | rain 24hr in | rain mn in | humidity % | barometer mb |
| 20260504041525 | 62 | 277 | 1.7 | 8.7 | 0.00 | 0.00 | 0.00 | 27 | 1011.3 |
| 20260504041008 | 62 | 274 | 4.3 | 8.7 | 0.00 | 0.00 | 0.00 | 27 | 1011.4 |
| 20260504040504 | 62 | 267 | 3.5 | 8.7 | 0.00 | 0.00 | 0.00 | 27 | 1011.4 |
| 20260504040012 | 63 | 258 | 1.7 | 7.8 | 0.00 | 0.00 | 0.00 | 27 | 1011.4 |
| 20260504035507 | 63 | 321 | 1.7 | 7.8 | 0.00 | 0.00 | 0.00 | 27 | 1011.5 |
| 20260504035008 | 63 | 307 | 2.6 | 7.0 | 0.00 | 0.00 | 0.00 | 27 | 1011.5 |
| 20260504034535 | 63 | 265 | 1.7 | 7.0 | 0.00 | 0.00 | 0.00 | 27 | 1011.6 |
| 20260504034008 | 63 | 234 | 2.6 | 7.0 | 0.00 | 0.00 | 0.00 | 27 | 1011.5 |
| 20260504033512 | 63 | 288 | 1.7 | 6.1 | 0.00 | 0.00 | 0.00 | 27 | 1011.5 |
| 20260504033030 | 63 | 237 | 1.7 | 6.1 | 0.00 | 0.00 | 0.00 | 27 | 1011.6 |
| 20260504032503 | 63 | 214 | 0.9 | 6.1 | 0.00 | 0.00 | 0.00 | 27 | 1011.5 |
| 20260504032004 | 63 | 241 | 0.9 | 5.2 | 0.00 | 0.00 | 0.00 | 27 | 1011.6 |
| 20260504031516 | 63 | 221 | 0.9 | 5.2 | 0.00 | 0.00 | 0.00 | 27 | 1011.6 |
| 20260504031007 | 63 | 214 | 0.0 | 3.5 | 0.00 | 0.00 | 0.00 | 26 | 1011.6 |
| 20260504030510 | 64 | 223 | 0.9 | 3.5 | 0.00 | 0.00 | 0.00 | 26 | 1011.5 |
| 20260504030036 | 64 | 219 | 0.9 | 4.3 | 0.00 | 0.00 | 0.00 | 25 | 1011.5 |
| 20260504025509 | 64 | 216 | 0.0 | 5.2 | 0.00 | 0.00 | 0.00 | 25 | 1011.4 |
| 20260504025011 | 64 | 246 | 1.7 | 5.2 | 0.00 | 0.00 | 0.00 | 25 | 1011.4 |
| 20260504024510 | 65 | 223 | 0.9 | 2.6 | 0.00 | 0.00 | 0.00 | 25 | 1011.4 |
| 20260504024008 | 65 | 252 | 0.9 | 1.7 | 0.00 | 0.00 | 0.00 | 24 | 1011.3 |
| 20260504023507 | 65 | 183 | 0.0 | 1.7 | 0.00 | 0.00 | 0.00 | 24 | 1011.2 |
| 20260504023020 | 65 | 194 | 0.9 | 1.7 | 0.00 | 0.00 | 0.00 | 1011.2 | |
| 20260504022511 | 66 | 240 | 0.0 | 1.7 | 0.00 | 0.00 | 0.00 | 1011.2 | |
| 20260504022011 | 66 | 40 | 0.0 | 1.7 | 0.00 | 0.00 | 0.00 | 22 | 1011.1 |
| 20260504021525 | 66 | 326 | 0.0 | 1.7 | 0.00 | 0.00 | 0.00 | 22 | 1011.1 |
| 20260504021009 | 67 | 213 | 0.0 | 2.6 | 0.00 | 0.00 | 0.00 | 22 | 1011.1 |
| 20260504020505 | 67 | 9 | 0.0 | 2.6 | 0.00 | 0.00 | 0.00 | 22 | 1011.1 |
| 20260504020011 | 67 | 350 | 0.9 | 2.6 | 0.00 | 0.00 | 0.00 | 22 | 1011.0 |
| 20260504015505 | 67 | 270 | 0.0 | 2.6 | 0.00 | 0.00 | 0.00 | 22 | 1011.0 |
| 20260504015010 | 67 | 294 | 0.9 | 6.1 | 0.00 | 0.00 | 0.00 | 22 | 1010.9 |
| 20260504014525 | 67 | 246 | 0.9 | 7.0 | 0.00 | 0.00 | 0.00 | 22 | 1010.8 |
| 20260504014009 | 67 | 211 | 1.7 | 7.0 | 0.00 | 0.00 | 0.00 | 21 | 1010.7 |
| 20260504013507 | 67 | 280 | 0.9 | 5.2 | 0.00 | 0.00 | 0.00 | 22 | 1010.7 |
| 20260504013028 | 68 | 236 | 0.9 | 5.2 | 0.00 | 0.00 | 0.00 | 22 | 1010.7 |
| 20260504012506 | 68 | 248 | 1.7 | 6.1 | 0.00 | 0.00 | 0.00 | 22 | 1010.7 |
| 20260504012006 | 68 | 209 | 1.7 | 7.0 | 0.00 | 0.00 | 0.00 | 22 | 1010.7 |
| 20260504011518 | 68 | 261 | 1.7 | 7.0 | 0.00 | 0.00 | 0.00 | 22 | 1010.8 |
| 20260504011007 | 68 | 283 | 2.6 | 7.0 | 0.00 | 0.00 | 0.00 | 22 | 1010.8 |
| 20260504010508 | 69 | 212 | 0.9 | 9.6 | 0.00 | 0.00 | 0.00 | 22 | 1010.8 |
| 20260504010024 | 69 | 232 | 1.7 | 9.6 | 0.00 | 0.00 | 0.00 | 21 | 1010.8 |
| 20260504005510 | 69 | 287 | 2.6 | 8.7 | 0.00 | 0.00 | 0.00 | 21 | 1010.9 |
| 20260504005013 | 69 | 326 | 1.7 | 7.8 | 0.00 | 0.00 | 0.00 | 22 | 1011.1 |
| 20260504004511 | 69 | 283 | 2.6 | 7.8 | 0.00 | 0.00 | 0.00 | 22 | 1011.2 |
| 20260504004006 | 69 | 226 | 1.7 | 7.0 | 0.00 | 0.00 | 0.00 | 21 | 1011.2 |
| 20260504003511 | 69 | 275 | 1.7 | 2.6 | 0.00 | 0.00 | 0.00 | 22 | 1011.4 |
| 20260504003023 | 69 | 271 | 0.9 | 2.6 | 0.00 | 0.00 | 0.00 | 22 | 1011.5 |
| 20260504002510 | 69 | 278 | 0.9 | 2.6 | 0.00 | 0.00 | 0.00 | 22 | 1011.5 |
| 20260504002012 | 69 | 352 | 0.0 | 3.5 | 0.00 | 0.00 | 0.00 | 22 | 1011.6 |
| 20260504001508 | 69 | 337 | 0.9 | 4.3 | 0.00 | 0.00 | 0.00 | 22 | 1011.7 |
| 20260504001003 | 69 | 333 | 1.7 | 4.3 | 0.00 | 0.00 | 0.00 | 22 | 1011.6 |
| 20260504000510 | 69 | 352 | 0.9 | 2.6 | 0.00 | 0.00 | 0.00 | 22 | 1011.7 |
| 20260504000016 | 69 | 337 | 0.9 | 5.2 | 0.00 | 0.00 | 0.00 | 22 | 1011.6 |
| 20260503235507 | 69 | 34 | 2.6 | 5.2 | 0.00 | 0.00 | 0.00 | 22 | 1011.6 |
| 20260503235007 | 70 | 333 | 1.7 | 4.3 | 0.00 | 0.00 | 0.00 | 22 | 1011.7 |
| 20260503234528 | 70 | 168 | 0.9 | 1.7 | 0.00 | 0.00 | 0.00 | 21 | 1011.9 |
| 20260503234007 | 69 | 267 | 0.9 | 4.3 | 0.00 | 0.00 | 0.00 | 22 | 1011.9 |
| 20260503233503 | 69 | 226 | 0.9 | 5.2 | 0.00 | 0.00 | 0.00 | 22 | 1011.9 |
| 20260503233011 | 70 | 225 | 0.9 | 5.2 | 0.00 | 0.00 | 0.00 | 22 | 1012.0 |
| 20260503232506 | 70 | 273 | 0.9 | 3.5 | 0.00 | 0.00 | 0.00 | 21 | 1011.9 |
| 20260503232007 | 70 | 333 | 1.7 | 4.3 | 0.00 | 0.00 | 0.00 | 21 | 1011.5 |
| 20260503231522 | 70 | 336 | 0.9 | 4.3 | 0.00 | 0.00 | 0.00 | 21 | 1011.4 |
| 20260503231009 | 70 | 167 | 0.0 | 3.5 | 0.00 | 0.00 | 0.00 | 22 | 1011.5 |
| 20260503230510 | 70 | 190 | 0.9 | 6.1 | 0.00 | 0.00 | 0.00 | 22 | 1011.5 |
| 20260503230028 | 70 | 109 | 1.7 | 10.4 | 0.00 | 0.00 | 0.00 | 22 | 1011.5 |
| 20260503225503 | 70 | 172 | 1.7 | 11.3 | 0.00 | 0.00 | 0.00 | 22 | 1011.7 |
| 20260503225007 | 69 | 234 | 4.3 | 15.6 | 0.00 | 0.00 | 0.00 | 24 | 1011.7 |
| 20260503224515 | 69 | 89 | 6.1 | 15.6 | 0.00 | 0.00 | 0.00 | 22 | 1011.8 |
| 20260503224007 | 70 | 86 | 2.6 | 11.3 | 0.00 | 0.00 | 0.00 | 22 | 1011.9 |
| 20260503223509 | 70 | 255 | 4.3 | 13.0 | 0.00 | 0.00 | 0.00 | 20 | 1011.9 |
| 20260503223027 | 70 | 343 | 6.1 | 13.0 | 0.00 | 0.00 | 0.00 | 20 | 1011.6 |
| 20260503222507 | 71 | 327 | 2.6 | 9.6 | 0.00 | 0.00 | 0.00 | 19 | 1011.6 |
| 20260503222011 | 71 | 301 | 1.7 | 5.2 | 0.00 | 0.00 | 0.00 | 18 | 1011.7 |
| 20260503221507 | 71 | 339 | 0.9 | 8.7 | 0.00 | 0.00 | 0.00 | 18 | 1011.6 |
| 20260503221006 | 71 | 349 | 1.7 | 8.7 | 0.00 | 0.00 | 0.00 | 18 | 1011.7 |
| 20260503220507 | 71 | 5 | 1.7 | 7.8 | 0.00 | 0.00 | 0.00 | 18 | 1011.7 |
| 20260503220018 | 71 | 314 | 2.6 | 7.8 | 0.00 | 0.00 | 0.00 | 17 | 1011.7 |
| 20260503215510 | 71 | 349 | 2.6 | 8.7 | 0.00 | 0.00 | 0.00 | 17 | 1011.7 |
| 20260503215011 | 71 | 274 | 1.7 | 13.9 | 0.00 | 0.00 | 0.00 | 17 | 1011.8 |
| 20260503214525 | 72 | 327 | 8.7 | 13.9 | 0.00 | 0.00 | 0.00 | 17 | 1011.9 |
| 20260503214007 | 72 | 306 | 3.5 | 7.8 | 0.00 | 0.00 | 0.00 | 17 | 1012.0 |
| 20260503213506 | 73 | 316 | 2.6 | 7.8 | 0.00 | 0.00 | 0.00 | 16 | 1012.0 |
| 20260503213012 | 73 | 282 | 1.7 | 11.3 | 0.00 | 0.00 | 0.00 | 16 | 1011.9 |
| 20260503212507 | 73 | 269 | 5.2 | 10.4 | 0.00 | 0.00 | 0.00 | 16 | 1011.9 |
| 20260503212012 | 73 | 209 | 4.3 | 11.3 | 0.00 | 0.00 | 0.00 | 17 | 1011.9 |
| 20260503211523 | 73 | 244 | 6.1 | 11.3 | 0.00 | 0.00 | 0.00 | 16 | 1011.9 |
| 20260503211004 | 73 | 209 | 4.3 | 8.7 | 0.00 | 0.00 | 0.00 | 16 | 1012.1 |
| 20260503210505 | 73 | 196 | 2.6 | 9.6 | 0.00 | 0.00 | 0.00 | 16 | 1012.1 |
| 20260503210015 | 74 | 214 | 4.3 | 9.6 | 0.00 | 0.00 | 0.00 | 15 | 1012.2 |
| 20260503205504 | 75 | 240 | 1.7 | 7.8 | 0.00 | 0.00 | 0.00 | 16 | 1012.1 |
| 20260503205007 | 75 | 254 | 0.9 | 7.8 | 0.00 | 0.00 | 0.00 | 13 | 1012.2 |
| 20260503204517 | 75 | 205 | 3.5 | 7.8 | 0.00 | 0.00 | 0.00 | 13 | 1012.2 |
| 20260503204011 | 75 | 301 | 2.6 | 7.8 | 0.00 | 0.00 | 0.00 | 13 | 1012.4 |
| 20260503203511 | 74 | 187 | 3.5 | 7.8 | 0.00 | 0.00 | 0.00 | 14 | 1012.5 |
| 20260503203011 | 74 | 248 | 2.6 | 17.4 | 0.00 | 0.00 | 0.00 | 14 | 1012.7 |
| 20260503202504 | 75 | 333 | 4.3 | 17.4 | 0.00 | 0.00 | 0.00 | 14 | 1012.8 |
| 20260503202004 | 75 | 194 | 7.0 | 16.5 | 0.00 | 0.00 | 0.00 | 14 | 1011.6 |
| 20260503201512 | 75 | 263 | 5.2 | 15.6 | 0.00 | 0.00 | 0.00 | 14 | 1012.9 |
| 20260503201007 | 73 | 280 | 0.9 | 5.2 | 0.00 | 0.00 | 0.00 | 15 | 1012.9 |
| 20260503200510 | 73 | 349 | 2.6 | 5.2 | 0.00 | 0.00 | 0.00 | 15 | 1012.9 |
| 20260503200022 | 73 | 323 | 1.7 | 9.6 | 0.00 | 0.00 | 0.00 | 15 | 1012.9 |
| 20260503195510 | 72 | 248 | 0.9 | 9.6 | 0.00 | 0.00 | 0.00 | 15 | 1013.0 |
| 20260503195005 | 72 | 306 | 3.5 | 8.7 | 0.00 | 0.00 | 0.00 | 15 | 1013.0 |
| 20260503194509 | 73 | 341 | 1.7 | 12.2 | 0.00 | 0.00 | 0.00 | 15 | 1013.2 |
| 20260503194005 | 73 | 9 | 1.7 | 12.2 | 0.00 | 0.00 | 0.00 | 15 | 1013.1 |
| 20260503193506 | 73 | 341 | 2.6 | 8.7 | 0.00 | 0.00 | 0.00 | 15 | 1013.3 |
| 20260503193015 | 73 | 352 | 3.5 | 7.8 | 0.00 | 0.00 | 0.00 | 15 | 1013.3 |
| 20260503192507 | 73 | 303 | 3.5 | 7.0 | 0.00 | 0.00 | 0.00 | 15 | 1013.4 |
| 20260503192008 | 73 | 263 | 3.5 | 7.0 | 0.00 | 0.00 | 0.00 | 14 | 1013.6 |
| 20260503191526 | 74 | 323 | 1.7 | 7.8 | 0.00 | 0.00 | 0.00 | 14 | 1013.6 |
| 20260503191006 | 74 | 9 | 1.7 | 8.7 | 0.00 | 0.00 | 0.00 | 14 | 1013.7 |
| 20260503190505 | 74 | 187 | 1.7 | 8.7 | 0.00 | 0.00 | 0.00 | 14 | 1013.7 |
| 20260503190007 | 74 | 342 | 1.7 | 11.3 | 0.00 | 0.00 | 0.00 | 15 | 1013.9 |
| 20260503185506 | 73 | 338 | 2.6 | 11.3 | 0.00 | 0.00 | 0.00 | 14 | 1013.9 |
| 20260503185008 | 73 | 322 | 4.3 | 11.3 | 0.00 | 0.00 | 0.00 | 15 | 1014.0 |
| 20260503184527 | 73 | 217 | 1.7 | 9.6 | 0.00 | 0.00 | 0.00 | 15 | 1014.1 |
| 20260503184013 | 73 | 274 | 1.7 | 9.6 | 0.00 | 0.00 | 0.00 | 15 | 1014.2 |
| 20260503183513 | 73 | 271 | 1.7 | 7.0 | 0.00 | 0.00 | 0.00 | 15 | 1014.4 |
| 20260503183004 | 73 | 330 | 0.9 | 8.7 | 0.00 | 0.00 | 0.00 | 15 | 1014.5 |
| 20260503182507 | 72 | 290 | 1.7 | 8.7 | 0.00 | 0.00 | 0.00 | 14 | 1014.6 |
| 20260503182010 | 72 | 329 | 3.5 | 12.2 | 0.00 | 0.00 | 0.00 | 15 | 1014.7 |
| 20260503181513 | 72 | 360 | 2.6 | 12.2 | 0.00 | 0.00 | 0.00 | 15 | 1014.8 |
| 20260503181008 | 72 | 304 | 1.7 | 9.6 | 0.00 | 0.00 | 0.00 | 15 | 1014.8 |
| 20260503180508 | 72 | 266 | 1.7 | 9.6 | 0.00 | 0.00 | 0.00 | 15 | 1015.0 |
| 20260503180030 | 72 | 225 | 1.7 | 12.2 | 0.00 | 0.00 | 0.00 | 15 | 1015.1 |
| 20260503175507 | 72 | 313 | 0.9 | 13.0 | 0.00 | 0.00 | 0.00 | 15 | 1015.2 |
| 20260503175011 | 72 | 352 | 2.6 | 13.0 | 0.00 | 0.00 | 0.00 | 15 | 1015.2 |
| 20260503174538 | 72 | 288 | 1.7 | 10.4 | 0.00 | 0.00 | 0.00 | 15 | 1015.4 |
| 20260503174010 | 72 | 352 | 2.6 | 10.4 | 0.00 | 0.00 | 0.00 | 16 | 1015.4 |
| 20260503173507 | 70 | 42 | 0.9 | 8.7 | 0.00 | 0.00 | 0.00 | 16 | 1015.5 |
| 20260503173018 | 70 | 334 | 2.6 | 9.6 | 0.00 | 0.00 | 0.00 | 16 | 1015.6 |
| 20260503172508 | 69 | 279 | 1.7 | 9.6 | 0.00 | 0.00 | 0.00 | 16 | 1015.7 |
| 20260503172012 | 69 | 344 | 3.5 | 9.6 | 0.00 | 0.00 | 0.00 | 17 | 1015.8 |
| 20260503171532 | 69 | 296 | 2.6 | 7.0 | 0.00 | 0.00 | 0.00 | 17 | 1015.8 |
| 20260503171013 | 69 | 247 | 0.9 | 7.0 | 0.00 | 0.00 | 0.00 | 17 | 1015.9 |
| 20260503170514 | 69 | 265 | 2.6 | 10.4 | 0.00 | 0.00 | 0.00 | 17 | 1015.9 |
| 20260503151003 | 64 | 338 | 1.7 | 7.8 | 0.00 | 0.00 | 0.00 | 22 | 1016.3 |
| 20260503150506 | 64 | 262 | 1.7 | 7.8 | 0.00 | 0.00 | 0.00 | 22 | 1016.4 |
| 20260503131006 | 59 | 321 | 1.7 | 12.2 | 0.00 | 0.00 | 0.00 | 24 | 1016.2 |
| 20260503130511 | 59 | 49 | 2.6 | 12.2 | 0.00 | 0.00 | 0.00 | 24 | 1016.1 |
| 20260503110514 | 49 | 118 | 0.0 | 1.7 | 0.00 | 0.00 | 0.00 | 45 | 1016.0 |
| 20260503081506 | 46 | 161 | 0.9 | 5.2 | 0.00 | 0.00 | 0.00 | 41 | 1016.4 |
| 20260503081004 | 46 | 187 | 0.9 | 4.3 | 0.00 | 0.00 | 0.00 | 41 | 1016.5 |
| 20260503080504 | 45 | 194 | 0.9 | 3.5 | 0.00 | 0.00 | 0.00 | 40 | 1016.5 |
| 20260503072504 | 44 | 128 | 0.0 | 1.7 | 0.00 | 0.00 | 0.00 | 40 | 1016.9 |
| 20260503072004 | 44 | 136 | 0.0 | 1.7 | 0.00 | 0.00 | 0.00 | 39 | 1017.0 |
| 20260503071522 | 44 | 140 | 0.0 | 1.7 | 0.00 | 0.00 | 0.00 | 39 | 1016.9 |
| 20260503071008 | 44 | 140 | 0.0 | 2.6 | 0.00 | 0.00 | 0.00 | 37 | 1016.9 |
| 20260503070511 | 44 | 138 | 0.0 | 2.6 | 0.00 | 0.00 | 0.00 | 37 | 1017.0 |
| 20260503055006 | 49 | 180 | 0.0 | 5.2 | 0.00 | 0.00 | 0.00 | 31 | 1017.3 |
| 20260503054533 | 49 | 195 | 0.0 | 5.2 | 0.00 | 0.00 | 0.00 | 29 | 1017.3 |
| 20260503054008 | 49 | 218 | 0.9 | 3.5 | 0.00 | 0.00 | 0.00 | 29 | 1017.2 |
| 20260503053510 | 48 | 231 | 0.9 | 7.0 | 0.00 | 0.00 | 0.00 | 29 | 1017.1 |
| 20260503053007 | 48 | 250 | 0.9 | 6.1 | 0.00 | 0.00 | 0.00 | 31 | 1017.1 |
| 20260503052503 | 48 | 199 | 0.0 | 1.7 | 0.00 | 0.00 | 0.00 | 32 | 1017.1 |
| 20260503052009 | 48 | 184 | 0.0 | 1.7 | 0.00 | 0.00 | 0.00 | 31 | 1017.1 |
| 20260503051529 | 48 | 229 | 0.0 | 1.7 | 0.00 | 0.00 | 0.00 | 30 | 1017.1 |
| 20260503051007 | 49 | 229 | 0.0 | 1.7 | 0.00 | 0.00 | 0.00 | 30 | 1017.2 |
| 20260503050508 | 49 | 180 | 0.0 | 1.7 | 0.00 | 0.00 | 0.00 | 30 | 1017.2 |
| 20260503050026 | 50 | 194 | 0.0 | 1.7 | 0.00 | 0.00 | 0.00 | 29 | 1017.2 |
| 20260503045508 | 51 | 194 | 0.0 | 1.7 | 0.00 | 0.00 | 0.00 | 28 | 1017.2 |
| 20260503045005 | 52 | 194 | 0.0 | 1.7 | 0.00 | 0.00 | 0.00 | 28 | 1017.3 |
| 20260503044514 | 52 | 194 | 0.0 | 3.5 | 0.00 | 0.00 | 0.00 | 28 | 1017.3 |
| 20260503044007 | 53 | 223 | 0.0 | 3.5 | 0.00 | 0.00 | 0.00 | 26 | 1017.3 |
| 20260503043510 | 52 | 189 | 0.0 | 3.5 | 0.00 | 0.00 | 0.00 | 25 | 1017.4 |
| 20260503043025 | 51 | 258 | 0.9 | 3.5 | 0.00 | 0.00 | 0.00 | 25 | 1017.4 |
| 20260503042508 | 51 | 258 | 0.9 | 1.7 | 0.00 | 0.00 | 0.00 | 26 | 1017.4 |
| 20260503042014 | 51 | 235 | 0.0 | 1.7 | 0.00 | 0.00 | 0.00 | 26 | 1017.5 |